Regional Weather Roundup
Issued by NWS

Home | Current Version | Previous Version | Graphics & Text | Print | Product List | Glossary On
Versions: 1 2 3 4 5 6 7 8 9 10 11 12 13 14 15 16 17 18 19 20 21 22 23 24 25 26 27
000
ASUS45 KSLC 071110
RWRUT

UTAH REGIONAL WEATHER ROUNDUP
NATIONAL WEATHER SERVICE SALT LAKE CITY UT
400 AM MST WED DEC 07 2016

UTZ001>011-023>025-071200-

NORTHERN UTAH

CITY           SKY/WX    TMP DP  RH WIND       PRES   REMARKS
BRIGHAM CITY     N/A     21  11  65 N7        30.10S WCI  12
HILL AFB       CLOUDY    21  11  65 NW5       30.07R WCI  14
LOGAN          FLURRIES  19  14  81 N10       30.10R WCI   7
OGDEN          CLOUDY    22  12  65 NW7       30.08R WCI  13
SALT LAKE CITY CLOUDY    24  15  68 NW10      30.09R WCI  14
TOOELE VALLEY  CLOUDY    23  18  80 NW8       30.10R WCI  14
WENDOVER       MOCLDY    23   5  46 NW6       30.12R WCI  16
HEBER CITY     MOCLDY    14   9  79 CALM      29.99S
WEST JORDAN    CLOUDY    21  20  96 NW5       30.09R WCI  15

$$

UTZ011>015-024>027-071200-

CENTRAL/NORTHEAST UTAH

CITY           SKY/WX    TMP DP  RH WIND       PRES   REMARKS
PROVO AIRPORT  MOCLDY    24  17  74 NW13      30.08R WCI  12
MOAB/CANYONLAN CLEAR     25   2  37 NW12      29.99R WCI  14
DELTA          CLOUDY    19  10  68 CALM      30.07S
PRICE          CLEAR     16   5  62 W7        29.97R WCI   6
ROOSEVELT      CLEAR     21   3  45 W12       30.00R WCI   9
VERNAL         MOCLDY    15   0  51 W5        29.97R WCI   8

$$

UTZ013>016-019>022-027-071200-

SOUTHERN UTAH

CITY           SKY/WX    TMP DP  RH WIND       PRES   REMARKS
BRYCE CANYON   NOT AVBL
CEDAR CITY     CLEAR     15   9  76 SE3       30.00R
MILFORD        CLEAR     14   6  70 CALM      30.05R
ST GEORGE      PTSUNNY   34  10  37 S7        30.04R WCI  28
HANKSVILLE     CLEAR     27  10  50 CALM      30.04R
BLANDING       PTCLDY    25  11  56 SW5       30.01R WCI  19

$$

REGIONAL REPORTS     COLORADO/ARIZONA

CITY           SKY/WX    TMP DP  RH WIND       PRES   REMARKS
CRAIG, CO      CLOUDY    14   9  80 CALM      29.95R
GRAND JUNCTION PTCLDY    13  13 100 CALM      29.98R
RIFLE, CO      FLURRIES  22  19  89 W8        29.96R WCI  12
MONTROSE, CO   CLOUDY    24  22  91 SE6       29.97S WCI  17
CORTEZ, CO     FLURRIES  26  22  84 E6        29.94R WCI  19
COLORADO CITY    N/A     25  18  74 CALM      30.01R
PAGE, AZ       PTCLDY    37   9  31 NW7       29.97R WCI  32
GRAND CANYON   CLOUDY    33  32  96 SW9       29.95F WCI  25
KINGMAN, AZ    PTCLDY    37  27  67 SE12      29.95R WCI  29
FLAGSTAFF, AZ  CLOUDY    32  29  88 SW8       29.95S WCI  25

$$

REGIONAL REPORTS    NEVADA/IDAHO/WYOMING

CITY           SKY/WX    TMP DP  RH WIND       PRES   REMARKS
LAS VEGAS, NV  MOCLDY    47   9  21 NE14      30.00R
ELY, NY        MOCLDY     5   1  83 S10       30.03S WCI -10
ELKO, NV       PTCLDY    18  11  74 CALM      30.11R
POCATELLO, ID  FLURRIES  18  12  77 W10       30.12R WCI   6
BURLEY, ID     FLURRIES  18  14  84 W9        30.14S WCI   7
FORT BRIDGER,  PTSUNNY    7   1  78 W10       29.94R WCI  -8
EVANSTON, WY   CLOUDY     4  -2  76 W7        29.92R WCI  -8
ROCK SPRINGS,  LGT SNOW   5   3  91 E7        29.92S FOG     WCI  -7

$$




USA.gov is the U.S. government's official web portal to all federal, state and local government web resources and services.